Regional Weather Roundup
Issued by NWS Nashville, TN

Current Version | Previous Version | Text Only | Print | Product List | Glossary Off
Versions: 1 2 3 4 5 6 7 8 9 10 11 12 13 14 15 16 17 18 19 20 21 22 23 24 25 26 27

000
ASUS44 KOHX 262310
RWROHX
MIDDLE TENNESSEE HOURLY WEATHER ROUNDUP
NATIONAL WEATHER SERVICE NASHVILLE TN
600 PM CDT SUN JUN 26 2022

NOTE: "FAIR" INDICATES FEW OR NO CLOUDS BELOW 12,000 FEET WITH
NO SIGNIFICANT WEATHER AND/OR OBSTRUCTIONS TO VISIBILITY.

* THESE REPORTS ARE NOT UNDER NWS QUALITY CONTROL AND MAY NOT
  REPORT WEATHER SUCH AS PRECIPITATION AND FOG.


TNZ005>011-023>034-057-059-062>066-078-080-270000
...NORTHERN MIDDLE TENNESSEE...

CITY           SKY/WX    TMP DP  RH WIND       PRES   REMARKS
CLARKSVILLE    CLOUDY    85  68  56 N13       30.03F
CROSSVILLE     TSTM      68  67  96 NW10G28   30.18R VSB 1/4
DICKSON        SUNNY     75  70  83 CALM      30.03F
GALLATIN       SUNNY     88  70  55 MISG      30.04R HX  92
NASHVILLE      CLOUDY    86  70  58 W7        30.02S HX  90
PORTLAND       SUNNY     84  70  61 N8        30.03R
SMYRNA         CLOUDY    85  72  65 W3        30.02S HX  91
SPARTA         PTSUNNY   73  72  94 SW9       30.07R FOG
SPRINGFIELD    SUNNY     84  72  65 N7        30.02S
WEST NASHVILLE SUNNY     82  70  65 W9        30.01R
$$
TNZ056-058-060-061-075>077-079-093>097-270000
...SOUTHERN MIDDLE TENNESSEE...

CITY           SKY/WX    TMP DP  RH WIND       PRES   REMARKS
COLUMBIA       SUNNY     73  73 100 CALM      30.01F FOG
FAYETTEVILLE   SUNNY     88  73  62 CALM      30.08R HX  96
LAWRENCEBURG   SUNNY     77  70  78 CALM      30.04F
LEWISBURG      PTSUNNY   75  70  83 SE5       30.03F
MCMINNVILLE    SUNNY     84  72  65 SW6       30.06R
MURFREESBORO   SUNNY     86  70  58 W8        30.00R HX  90
PULASKI        PTSUNNY   73  72  94 SE7       30.05F
SHELBYVILLE    SUNNY     79  68  69 W8G17     30.03R
TULLAHOMA      SUNNY     84  73  70 S5        30.04S HX  91
WINCHESTER     SUNNY     84  72  65 S7        30.05S
$$


...KEY TO REMARKS...
VSB - VISIBILITY IN MILES
WCI - WIND CHILL INDEX
HX  - HEAT INDEX




USA.gov is the U.S. government's official web portal to all federal, state and local government web resources and services.